Weather History for Saranac Lake, NY

Change the Weather History Date:

Thursday, December 6, 2012

  Actual Average Record
Temperature  
Mean Temperature 24 °F 23 °F  
Max Temperature 31 °F 32 °F 60 °F (2001)
Min Temperature 17 °F 13 °F -7 °F (1992)
Degree Days  
Heating Degree Days 41 42  
Month to date heating degree days 194 246  
Since 1 July heating degree days 2357 2521  
Cooling Degree Days 0 0  
Month to date cooling degree days 0  
Year to date cooling degree days 114  
Moisture  
Dew Point 15 °F    
Average Humidity 75    
Maximum Humidity 92    
Minimum Humidity 58    
Precipitation  
Precipitation T in 0.08 in 0.91 in (1984)
Month to date precipitation 1.03 0.55  
Year to date precipitation 31.98 35.78  
Sea Level Pressure  
Sea Level Pressure 30.28 in    
Wind  
Wind Speed 1 mph (WSW)    
Max Wind Speed 8 mph    
Max Gust Speed 14 mph    
Visibility 9 miles    
Events Snow    
T = Trace of Precipitation, MM = Missing Value Source: NWS Daily Summary

Daily Weather History Graph

Daily Weather History Graph

Search for Another Location

Airport:

Trip Planner

Search our weather history database for the weather conditions in past years. The results will help you decide how hot, cold, wet, or windy it might be!

Date:

Astronomy

Dec. 06, 2012 Rise Set
Actual Time 7:18 AM EST 4:17 PM EST
Civil Twilight 6:45 AM EST 4:50 PM EST
Nautical Twilight 6:09 AM EST 5:26 PM EST
Astronomical Twilight 5:33 AM EST 6:02 PM EST
Moon No Moon Rise 11:56 AM EST (12/6)
Length of Visible Light 10h 04m
Length of Day
8h 58m
Waning Gibbous, 49% of the Moon is Illuminated
Dec 6
Waning Gibbous
Dec 13
New
Dec 20
First Quarter
Dec 28
Full
Jan 4
Last Quarter

Hourly Weather History & Observations

Time (EST) Temp. Windchill Dew Point Humidity Pressure Visibility Wind Dir Wind Speed Gust Speed Precip Events Conditions
12:51 AM 19.9 °F 12.1 °F 12.0 °F 71% 30.27 in 10.0 mi Variable 5.8 mph - N/A   Overcast
1:51 AM 19.9 °F 12.1 °F 12.9 °F 74% 30.30 in 9.0 mi NW 5.8 mph - N/A   Overcast
2:51 AM 19.9 °F 14.9 °F 14.0 °F 78% 30.32 in 3.0 mi Variable 3.5 mph - 0.00 in Snow Light Snow
3:51 AM 19.0 °F 13.9 °F 12.9 °F 77% 30.33 in 4.0 mi Variable 3.5 mph - 0.00 in Snow Light Snow
4:51 AM 19.0 °F 12.3 °F 12.9 °F 77% 30.35 in 6.0 mi West 4.6 mph - 0.00 in   Haze
5:51 AM 19.0 °F - 12.9 °F 77% 30.36 in 8.0 mi Calm Calm - 0.00 in   Overcast
6:51 AM 19.0 °F - 12.0 °F 74% 30.37 in 10.0 mi Calm Calm - N/A   Overcast
7:51 AM 18.0 °F - 12.0 °F 78% 30.37 in 10.0 mi Calm Calm - N/A   Overcast
8:51 AM 19.0 °F - 12.9 °F 77% 30.38 in 10.0 mi Calm Calm - N/A   Mostly Cloudy
9:51 AM 19.9 °F 13.4 °F 14.0 °F 78% 30.37 in 10.0 mi SSW 4.6 mph - N/A   Scattered Clouds
10:51 AM 21.9 °F - 15.1 °F 75% 30.35 in 10.0 mi Calm Calm - N/A   Clear
11:51 AM 25.0 °F - 15.1 °F 66% 30.32 in 10.0 mi Calm Calm - N/A   Clear
1:51 PM 30.0 °F 26.5 °F 17.1 °F 59% 30.26 in 10.0 mi South 3.5 mph - N/A   Clear
2:51 PM 30.9 °F 27.5 °F 17.1 °F 57% 30.25 in 10.0 mi Variable 3.5 mph - N/A   Clear
3:51 PM 30.0 °F - 19.0 °F 64% 30.23 in 10.0 mi Calm Calm - N/A   Clear
4:51 PM 25.0 °F - 18.0 °F 75% 30.24 in 10.0 mi Calm Calm - N/A   Clear
5:51 PM 21.9 °F - 17.1 °F 82% 30.23 in 10.0 mi Calm Calm - N/A   Clear
6:51 PM 19.9 °F - 16.0 °F 85% 30.23 in 10.0 mi Calm Calm - N/A   Clear
7:51 PM 18.0 °F - 15.1 °F 88% 30.23 in 10.0 mi Calm Calm - N/A   Clear
8:51 PM 19.9 °F - 17.1 °F 89% 30.21 in 10.0 mi Calm Calm - N/A   Clear
9:51 PM 21.0 °F - 18.0 °F 88% 30.18 in 10.0 mi Calm Calm - N/A   Clear
10:51 PM 21.9 °F - 19.0 °F 89% 30.17 in 10.0 mi Calm Calm - N/A   Clear
11:51 PM 23.0 °F - 19.9 °F 88% 30.13 in 10.0 mi Calm Calm - N/A   Clear